APG431 RPVP-RPLL

Flight info

Callsign APG431
Flight time 0h 55m
Altitude 33000
Route DABOY1E DABOY W281 LEGED N884 LUBAN LUBAN3R
Aircraft A320/M-SDE3FGHIRWY/LB1

Departure

Time 2026-05-06 15:13
Airport Puerto Princesa International Airport / PAF Antonio Bautista Air Base (RPVP)

Arrival

Time 2026-05-06 16:09
Airport Ninoy Aquino International Airport (RPLL)
Time Latitude Longitude Altitude Speed Heading
2026-05-06 15:08 9.74410 118.75118 74 ft 2 kts 272°
2026-05-06 15:09 9.74410 118.75111 74 ft 0 kts 272°
2026-05-06 15:10 9.74410 118.75105 74 ft 2 kts 272°
2026-05-06 15:10 9.74412 118.75073 74 ft 5 kts 272°
2026-05-06 15:11 9.74414 118.75020 74 ft 8 kts 272°
2026-05-06 15:11 9.74417 118.74950 74 ft 8 kts 272°
2026-05-06 15:11 9.74420 118.74876 74 ft 10 kts 273°
2026-05-06 15:11 9.74424 118.74797 74 ft 11 kts 272°
2026-05-06 15:12 9.74404 118.74719 74 ft 11 kts 221°
2026-05-06 15:12 9.74323 118.74706 74 ft 12 kts 179°
2026-05-06 15:12 9.74262 118.74715 74 ft 5 kts 133°
2026-05-06 15:12 9.74257 118.74743 74 ft 2 kts 93°
2026-05-06 15:13 9.74253 118.74845 74 ft 43 kts 92°
2026-05-06 15:13 9.74226 118.75444 74 ft 115 kts 92°
2026-05-06 15:13 9.74184 118.76472 119 ft 164 kts 90°
2026-05-06 15:13 9.74135 118.77619 724 ft 163 kts 92°
2026-05-06 15:14 9.74078 118.78749 1392 ft 162 kts 83°
2026-05-06 15:14 9.74592 118.79710 1947 ft 162 kts 36°
2026-05-06 15:14 9.75752 118.80054 2232 ft 179 kts 10°
2026-05-06 15:14 9.77036 118.80228 2528 ft 194 kts 11°
2026-05-06 15:15 9.78437 118.80481 2758 ft 215 kts 14°
2026-05-06 15:15 9.79953 118.80821 3121 ft 232 kts 15°
2026-05-06 15:15 9.81584 118.81228 3637 ft 242 kts 16°
2026-05-06 15:15 9.83207 118.81651 4324 ft 245 kts 17°
2026-05-06 15:16 9.84861 118.82090 5025 ft 247 kts 18°
2026-05-06 15:16 9.86535 118.82539 5721 ft 249 kts 18°
2026-05-06 15:16 9.88223 118.82976 6438 ft 252 kts 14°
2026-05-06 15:16 9.89962 118.83218 7116 ft 257 kts
2026-05-06 15:17 9.91808 118.83237 7558 ft 273 kts
2026-05-06 15:17 9.93778 118.83181 8088 ft 284 kts
2026-05-06 15:17 9.95745 118.83112 8797 ft 287 kts
2026-05-06 15:17 9.97755 118.83043 9504 ft 289 kts
2026-05-06 15:18 9.99783 118.82977 10177 ft 292 kts
2026-05-06 15:18 10.01864 118.82912 10615 ft 304 kts
2026-05-06 15:18 10.04052 118.82846 10889 ft 321 kts
2026-05-06 15:18 10.06330 118.82778 11155 ft 336 kts
2026-05-06 15:19 10.08731 118.82707 11407 ft 351 kts
2026-05-06 15:19 10.11232 118.82632 11647 ft 365 kts
2026-05-06 15:19 10.13820 118.82554 12034 ft 372 kts
2026-05-06 15:19 10.16475 118.82474 12561 ft 374 kts
2026-05-06 15:20 10.19114 118.82394 13058 ft 377 kts
2026-05-06 15:20 10.21817 118.82312 13554 ft 380 kts 360°
2026-05-06 15:20 10.24543 118.82231 14014 ft 383 kts
2026-05-06 15:20 10.27266 118.82150 14461 ft 386 kts
2026-05-06 15:21 10.30007 118.82068 14910 ft 388 kts
2026-05-06 15:21 10.32805 118.81985 15346 ft 391 kts
2026-05-06 15:21 10.35582 118.81902 15759 ft 394 kts
2026-05-06 15:21 10.38387 118.81818 16147 ft 397 kts
2026-05-06 15:22 10.41208 118.81802 16527 ft 400 kts
2026-05-06 15:22 10.44061 118.81946 16900 ft 402 kts
2026-05-06 15:22 10.46942 118.82143 17267 ft 405 kts
2026-05-06 15:22 10.49808 118.82347 17633 ft 407 kts
2026-05-06 15:23 10.52721 118.82555 17988 ft 410 kts
2026-05-06 15:23 10.55582 118.82758 18345 ft 411 kts
2026-05-06 15:23 10.58529 118.82967 18703 ft 413 kts
2026-05-06 15:23 10.61413 118.83170 19040 ft 414 kts
2026-05-06 15:24 10.64343 118.83375 19371 ft 416 kts
2026-05-06 15:24 10.67269 118.83580 19689 ft 418 kts
2026-05-06 15:24 10.70205 118.83786 19995 ft 420 kts
2026-05-06 15:24 10.73137 118.83993 20286 ft 422 kts
2026-05-06 15:25 10.76140 118.84203 20580 ft 424 kts
2026-05-06 15:25 10.79087 118.84409 20874 ft 425 kts
2026-05-06 15:25 10.82091 118.84621 21164 ft 427 kts
2026-05-06 15:25 10.85084 118.84831 21445 ft 428 kts
2026-05-06 15:26 10.88098 118.85043 21720 ft 430 kts
2026-05-06 15:26 10.91068 118.85252 21993 ft 431 kts
2026-05-06 15:26 10.94091 118.85466 22263 ft 432 kts
2026-05-06 15:26 10.97120 118.85680 22528 ft 433 kts
2026-05-06 15:27 11.00133 118.85894 22787 ft 435 kts
2026-05-06 15:27 11.03177 118.86108 23020 ft 437 kts
2026-05-06 15:27 11.06266 118.86325 23250 ft 439 kts
2026-05-06 15:27 11.09300 118.86539 23480 ft 440 kts
2026-05-06 15:28 11.12412 118.86758 23707 ft 442 kts
2026-05-06 15:28 11.15559 118.86978 23939 ft 444 kts
2026-05-06 15:28 11.18689 118.87196 24164 ft 446 kts
2026-05-06 15:28 11.21885 118.87419 24403 ft 447 kts
2026-05-06 15:29 11.25039 118.87640 24628 ft 449 kts
2026-05-06 15:29 11.28183 118.87862 24860 ft 450 kts
2026-05-06 15:29 11.31368 118.88087 25072 ft 452 kts
2026-05-06 15:29 11.34567 118.88313 25278 ft 453 kts
2026-05-06 15:30 11.37782 118.88538 25491 ft 455 kts
2026-05-06 15:30 11.41006 118.88766 25706 ft 456 kts
2026-05-06 15:30 11.44223 118.88992 25912 ft 457 kts
2026-05-06 15:30 11.47453 118.89220 26121 ft 458 kts
2026-05-06 15:31 11.50710 118.89450 26311 ft 460 kts
2026-05-06 15:31 11.53993 118.89681 26498 ft 461 kts
2026-05-06 15:31 11.57286 118.89912 26677 ft 463 kts
2026-05-06 15:32 11.63855 118.90376 27022 ft 466 kts
2026-05-06 15:32 11.67136 118.90608 27183 ft 467 kts
2026-05-06 15:32 11.70460 118.90843 27340 ft 469 kts
2026-05-06 15:32 11.73777 118.91077 27491 ft 470 kts
2026-05-06 15:33 11.77117 118.91314 27648 ft 471 kts
2026-05-06 15:33 11.80449 118.91550 27810 ft 472 kts
2026-05-06 15:33 11.83805 118.91788 27951 ft 473 kts
2026-05-06 15:33 11.87133 118.92023 28098 ft 474 kts
2026-05-06 15:34 11.90501 118.92261 28255 ft 474 kts
2026-05-06 15:34 11.93892 118.92501 28463 ft 474 kts
2026-05-06 15:34 11.97292 118.92741 28687 ft 473 kts
2026-05-06 15:34 12.00637 118.92976 28915 ft 472 kts
2026-05-06 15:35 12.04020 118.93216 29141 ft 471 kts
2026-05-06 15:35 12.05127 118.93295 29212 ft 471 kts
2026-05-06 15:35 12.10698 118.93690 29581 ft 471 kts
2026-05-06 15:35 12.14039 118.93927 29815 ft 470 kts
2026-05-06 15:36 12.17388 118.94165 30069 ft 469 kts
2026-05-06 15:36 12.20726 118.94402 30343 ft 467 kts
2026-05-06 15:36 12.24049 118.94637 30622 ft 466 kts
2026-05-06 15:36 12.27318 118.94869 30900 ft 464 kts
2026-05-06 15:37 12.30630 118.95105 31152 ft 464 kts
2026-05-06 15:37 12.33933 118.95340 31370 ft 464 kts
2026-05-06 15:37 12.37249 118.95576 31564 ft 465 kts
2026-05-06 15:37 12.40536 118.95810 31762 ft 465 kts
2026-05-06 15:38 12.43850 118.96045 31970 ft 465 kts
2026-05-06 15:38 12.47156 118.96279 32162 ft 465 kts
2026-05-06 15:38 12.50491 118.96516 32354 ft 465 kts
2026-05-06 15:38 12.53785 118.96750 32536 ft 466 kts
2026-05-06 15:39 12.57060 118.96983 32700 ft 466 kts
2026-05-06 15:39 12.60284 118.97214 32866 ft 467 kts
2026-05-06 15:39 12.66903 118.97687 32890 ft 468 kts
2026-05-06 15:40 12.73500 118.98155 32891 ft 468 kts
2026-05-06 15:40 12.80137 118.98630 32891 ft 467 kts
2026-05-06 15:41 12.86781 118.99105 32893 ft 467 kts
2026-05-06 15:41 12.93448 118.99722 32889 ft 469 kts
2026-05-06 15:42 12.99874 119.01813 32889 ft 472 kts 24°
2026-05-06 15:42 13.05532 119.05563 32889 ft 474 kts 39°
2026-05-06 15:43 13.10072 119.10629 32890 ft 477 kts 50°
2026-05-06 15:43 13.14188 119.16093 32889 ft 477 kts 51°
2026-05-06 15:44 13.18323 119.21596 32889 ft 477 kts 51°
2026-05-06 15:44 13.22457 119.27071 32889 ft 477 kts 51°
2026-05-06 15:45 13.26618 119.32578 32889 ft 477 kts 51°
2026-05-06 15:45 13.30766 119.38065 32889 ft 477 kts 51°
2026-05-06 15:46 13.34915 119.43557 32889 ft 478 kts 51°
2026-05-06 15:46 13.39050 119.49032 32888 ft 479 kts 51°
2026-05-06 15:47 13.43158 119.54475 32530 ft 473 kts 51°
2026-05-06 15:47 13.45165 119.57135 31716 ft 474 kts 51°
2026-05-06 15:47 13.47194 119.59824 30595 ft 480 kts 51°
2026-05-06 15:48 13.49231 119.62521 29449 ft 484 kts 51°
2026-05-06 15:48 13.51288 119.65250 28324 ft 487 kts 52°
2026-05-06 15:48 13.53392 119.68040 27229 ft 488 kts 52°
2026-05-06 15:48 13.55484 119.70819 26532 ft 480 kts 52°
2026-05-06 15:49 13.57534 119.73542 25958 ft 470 kts 52°
2026-05-06 15:49 13.59514 119.76176 25420 ft 460 kts 52°
2026-05-06 15:49 13.61479 119.78790 24889 ft 452 kts 52°
2026-05-06 15:49 13.63396 119.81339 24377 ft 444 kts 52°
2026-05-06 15:50 13.65288 119.83855 23851 ft 438 kts 52°
2026-05-06 15:50 13.67175 119.86368 23344 ft 434 kts 52°
2026-05-06 15:50 13.69050 119.88862 22847 ft 431 kts 52°
2026-05-06 15:50 13.70896 119.91318 22356 ft 428 kts 52°
2026-05-06 15:51 13.72767 119.93794 21864 ft 423 kts 52°
2026-05-06 15:51 13.74540 119.96136 21286 ft 419 kts 52°
2026-05-06 15:51 13.76352 119.98522 20775 ft 411 kts 52°
2026-05-06 15:51 13.78076 120.00789 20562 ft 398 kts 52°
2026-05-06 15:52 13.79756 120.02997 20349 ft 385 kts 52°
2026-05-06 15:52 13.81379 120.05131 20143 ft 372 kts 52°
2026-05-06 15:52 13.82949 120.07195 19948 ft 361 kts 52°
2026-05-06 15:52 13.84482 120.09209 19760 ft 349 kts 52°
2026-05-06 15:53 13.85976 120.11167 19577 ft 339 kts 52°
2026-05-06 15:53 13.87415 120.13046 19294 ft 333 kts 52°
2026-05-06 15:53 13.88847 120.14911 18896 ft 330 kts 52°
2026-05-06 15:53 13.90276 120.16766 18478 ft 328 kts 52°
2026-05-06 15:54 13.91695 120.18604 18070 ft 327 kts 52°
2026-05-06 15:54 13.93129 120.20461 17657 ft 325 kts 52°
2026-05-06 15:54 13.94528 120.22269 17261 ft 323 kts 52°
2026-05-06 15:54 13.95915 120.24059 16876 ft 321 kts 52°
2026-05-06 15:55 13.97300 120.25851 16365 ft 315 kts 52°
2026-05-06 15:55 13.98645 120.27593 15656 ft 313 kts 52°
2026-05-06 15:55 14.00008 120.29365 14926 ft 310 kts 52°
2026-05-06 15:55 14.01335 120.31095 14223 ft 306 kts 52°
2026-05-06 15:56 14.02650 120.32816 13565 ft 305 kts 52°
2026-05-06 15:56 14.03975 120.34553 13135 ft 302 kts 52°
2026-05-06 15:56 14.05270 120.36254 12755 ft 300 kts 52°
2026-05-06 15:56 14.06578 120.37890 12373 ft 298 kts 50°
2026-05-06 15:57 14.07947 120.39494 11954 ft 298 kts 49°
2026-05-06 15:57 14.09323 120.41095 11539 ft 297 kts 50°
2026-05-06 15:57 14.10713 120.42724 11156 ft 294 kts 50°
2026-05-06 15:57 14.12153 120.44421 10779 ft 291 kts 50°
2026-05-06 15:58 14.13531 120.46051 10409 ft 288 kts 50°
2026-05-06 15:58 14.14871 120.47639 10066 ft 285 kts 50°
2026-05-06 15:58 14.16209 120.49229 9703 ft 283 kts 50°
2026-05-06 15:58 14.17486 120.50748 9353 ft 280 kts 50°
2026-05-06 15:59 14.18760 120.52264 9006 ft 277 kts 50°
2026-05-06 15:59 14.20028 120.53773 8658 ft 275 kts 50°
2026-05-06 15:59 14.21265 120.55247 8296 ft 273 kts 50°
2026-05-06 15:59 14.22500 120.56716 7953 ft 271 kts 50°
2026-05-06 16:00 14.23737 120.58189 7612 ft 269 kts 50°
2026-05-06 16:00 14.24967 120.59654 7274 ft 267 kts 50°
2026-05-06 16:00 14.26174 120.61093 6927 ft 266 kts 50°
2026-05-06 16:00 14.27370 120.62518 6591 ft 264 kts 50°
2026-05-06 16:01 14.28590 120.63950 6246 ft 262 kts 46°
2026-05-06 16:01 14.29942 120.65243 5911 ft 261 kts 45°
2026-05-06 16:01 14.31134 120.66639 5578 ft 259 kts 54°
2026-05-06 16:01 14.32129 120.68200 5242 ft 257 kts 59°
2026-05-06 16:02 14.33055 120.69812 4998 ft 260 kts 60°
2026-05-06 16:02 14.33971 120.71455 4976 ft 262 kts 60°
2026-05-06 16:02 14.34875 120.73093 4974 ft 262 kts 60°
2026-05-06 16:02 14.35758 120.74695 4964 ft 249 kts 60°
2026-05-06 16:03 14.36618 120.76218 4747 ft 244 kts 60°
2026-05-06 16:03 14.37456 120.77724 4483 ft 238 kts 60°
2026-05-06 16:03 14.38252 120.79186 4174 ft 232 kts 60°
2026-05-06 16:03 14.39024 120.80625 3962 ft 227 kts 60°
2026-05-06 16:04 14.39791 120.82056 3697 ft 225 kts 60°
2026-05-06 16:04 14.40557 120.83433 3440 ft 223 kts 59°
2026-05-06 16:04 14.41334 120.84800 3240 ft 218 kts 59°
2026-05-06 16:04 14.42122 120.86197 2968 ft 215 kts 59°
2026-05-06 16:05 14.42872 120.87543 2679 ft 211 kts 60°
2026-05-06 16:05 14.43590 120.88840 2400 ft 203 kts 60°
2026-05-06 16:05 14.44279 120.90086 2188 ft 189 kts 60°
2026-05-06 16:05 14.44892 120.91195 1973 ft 169 kts 60°
2026-05-06 16:06 14.45460 120.92222 1769 ft 158 kts 59°
2026-05-06 16:06 14.45986 120.93169 1527 ft 145 kts 60°
2026-05-06 16:06 14.46470 120.94041 1321 ft 135 kts 60°
2026-05-06 16:06 14.46937 120.94882 1161 ft 134 kts 60°
2026-05-06 16:07 14.47400 120.95716 1004 ft 134 kts 61°
2026-05-06 16:07 14.47862 120.96551 845 ft 134 kts 60°
2026-05-06 16:07 14.48330 120.97394 677 ft 133 kts 60°
2026-05-06 16:07 14.48796 120.98234 503 ft 133 kts 60°
2026-05-06 16:08 14.49308 120.99154 304 ft 133 kts 61°
2026-05-06 16:08 14.49808 121.00053 125 ft 134 kts 63°
2026-05-06 16:08 14.50281 121.00905 83 ft 114 kts 61°
2026-05-06 16:08 14.50622 121.01523 82 ft 59 kts 60°
2026-05-06 16:09 14.50832 121.01769 82 ft 14 kts 38°
2026-05-06 16:09 14.50866 121.01789 82 ft 6 kts 11°
2026-05-06 16:09 14.50902 121.01771 82 ft 6 kts 304°
2026-05-06 16:09 14.50889 121.01714 82 ft 7 kts 242°
2026-05-06 16:10 14.50883 121.01678 82 ft 4 kts 307°
2026-05-06 16:10 14.50908 121.01648 82 ft 6 kts 309°
2026-05-06 16:10 14.50909 121.01604 82 ft 7 kts 244°
2026-05-06 16:10 14.50883 121.01553 82 ft 8 kts 240°
2026-05-06 16:11 14.50851 121.01495 82 ft 9 kts 239°
2026-05-06 16:11 14.50814 121.01430 82 ft 11 kts 240°
2026-05-06 16:11 14.50778 121.01365 82 ft 8 kts 241°
2026-05-06 16:11 14.50777 121.01321 82 ft 7 kts 332°
2026-05-06 16:12 14.50822 121.01296 82 ft 6 kts 332°
2026-05-06 16:12 14.50843 121.01285 82 ft 2 kts 331°
2026-05-06 16:12 14.50855 121.01279 82 ft 0 kts 331°